LFOVLFRN

Guest
Details From LFOV - Laval Entrammes
To LFRN - Rennes St Jacques
Flight Number -
Tags generated
Created
Modified
Stats Distance 40 nm / 75 km
Max Altitude 4,300 ft / 1,311 m
Waypoints 3
Social Downloads 7
Likes 0
Share VATSIM

Download

Looking for another format? Having issues loading an existing format? Contact us
Advertisement - Login to hide

Notes

Basic altitude profile: - Ascent Rate: 2500ft/min - Ascent Speed: 250kts - Cruise Altitude: 35000ft - Cruise Speed: 290kts - Descent Rate: 1500ft/min - Descent Speed: 250kts Options: - Use NATs: yes - Use PACOTS: yes - Use low airways: yes - Use high airways: yes

Route

LFOV VAKSI LFRN

ID Type Via Altitude Latitude Longitude Leg Dist Tot Dist Heading (true) Name
O LFOV APT - 0 ft / 0 m 48.03136˚ -0.74299˚ - 0 nm - Laval Entrammes
VAKSI FIX - 4,300 ft / 1,311 m 47.99917˚ -1.23472˚ 19 nm 19 nm 265° / 264° -
O LFRN APT - 0 ft / 0 m 48.06941˚ -1.73459˚ 20 nm 40 nm 282° / 282° Rennes St Jacques

Altitude Profile

Advertisement - Login to hide

LFOV

Details ICAO LFOV (LVA)
Name Laval Entrammes
Region France
Timezone Europe/Paris (UTC+1.0)
Stats Elevation 330 ft / 101 m (AMSL)
Location 48.031360° -0.742988°
Runways 1
Magnetic Variation 0.312° W

METAR

LFOV 131730Z AUTO 29019KT 9999 SCT009 BKN015 OVC024 11/09 Q1000

Decode

TAF

Not found

Departure Runways

ID Width Length Bearing (true) Bearing (mag) Surface Threshold Offset Overrun Length
15 98 ft / 30 m 5,004 ft / 1,525 m 142.43° 142.74° Asphalt 0 ft / 0 m 197 ft / 60 m
33 98 ft / 30 m 5,004 ft / 1,525 m 322.44° 322.75° Asphalt 985 ft / 300 m 197 ft / 60 m

LFRN

Details ICAO LFRN (RNS)
Name Rennes St Jacques
Region France
Timezone Europe/Paris (UTC+1.0)
Stats Elevation 124 ft / 38 m (AMSL)
Location 48.069410° -1.734587°
Runways 2
Magnetic Variation 0.634° W

METAR

LFRN 131730Z AUTO 28009KT 9999 BKN008 BKN020 BKN026 10/09 Q1002 BECMG 28015G27KT BKN020

Decode

TAF

TAF AMD LFRN 131436Z 1314/1412 21010KT 5000 RA BKN015 TEMPO 1314/1316 3000 RA BKN005 BECMG 1315/1317 28015G27KT 9999 NSW BKN025 TEMPO 1317/1319 5000 SHRA PROB30 TEMPO 1321/1403 5000 SHRA BKN020TCU BECMG 1400/1403 24012KT BECMG 1406/1409 24017G27KT TEMPO 1409/1412 24020G32KT 3000 TSRA BKN015CB

Decode

Destination Runways

ID Width Length Bearing (true) Bearing (mag) Surface Threshold Offset Overrun Length
10 148 ft / 45 m 6,895 ft / 2,102 m 100.76° 101.39° Asphalt 230 ft / 70 m 0 ft / 0 m
14 98 ft / 30 m 2,785 ft / 849 m 142.19° 142.82° Asphalt 0 ft / 0 m 0 ft / 0 m
28 148 ft / 45 m 6,895 ft / 2,102 m 280.78° 281.41° Asphalt 0 ft / 0 m 0 ft / 0 m
32 98 ft / 30 m 2,785 ft / 849 m 322.20° 322.83° Asphalt 0 ft / 0 m 0 ft / 0 m

Approach Navaids

Runway Type Ident Frequency Range Bearing (true) Bearing (mag) Slope Elevation
28 Localiser RS 110.10 MHz 18 nm / 33 km 280.72° 281.35° - 124 ft / 38 m (AMSL)
28 Glidescope RS 110.10 MHz 10 nm / 19 km 280.77° 281.40° 3.00° 124 ft / 38 m (AMSL)
28 DME RS 110.10 MHz 18 nm / 33 km - - - 174 ft / 53 m (AMSL)

Popular Alternatives